FW8793 Weather Reports


time (UTC)temp
F
wind
direction
speed
knots
gust
knots
rain 1hr
in
rain 24hr
in
rain mn
in
humidity
%
barometer
mb
20260906121507 59 53 0.0 0.0 0.00 0.00 0.00 94 1019.4
20260906121000 59 44 0.0 0.0 0.00 0.00 0.00 95 1019.4
20260906120459 58 19 0.0 0.0 0.00 0.00 0.00 96 1019.3
20260906120004 58 26 0.0 0.0 0.00 0.00 0.00 96 1019.2
20260906115500 57 351 0.0 0.0 0.00 0.00 0.00 96 1019.2
20260906114959 57 351 0.0 0.0 0.00 0.00 0.00 96 1019.0
20260906114459 56 351 0.0 0.0 0.00 0.00 0.00 96 1018.9
20260906114002 56 351 0.0 0.0 0.00 0.00 0.00 95 1018.9
20260906113459 56 351 0.0 0.0 0.00 0.00 0.00 95 1018.9
20260906112959 56 351 0.0 0.0 0.00 0.00 0.00 95 1018.9
20260906112459 56 351 0.0 0.0 0.00 0.00 0.00 95 1018.8
20260906112006 56 351 0.0 0.0 0.00 0.00 0.00 95 1018.8
20260906111459 56 28 0.0 0.0 0.00 0.00 0.00 95 1018.9
20260906110959 56 22 0.0 0.0 0.00 0.00 0.00 95 1018.8
20260906110459 56 347 0.0 0.0 0.00 0.00 0.00 95 1018.7
20260906105459 55 28 0.0 0.0 0.00 0.00 0.00 94 1018.7
20260906104959 55 28 0.0 0.9 0.00 0.00 0.00 94 1018.7
20260906103959 55 36 0.9 1.7 0.00 0.00 0.00 93 1018.6
20260906103503 56 29 0.0 0.9 0.00 0.00 0.00 93 1018.7
20260906103002 56 29 0.0 0.9 0.00 0.00 0.00 93 1018.7
20260906102459 56 29 0.0 0.9 0.00 0.00 0.00 93 1018.8
20260906101959 56 25 0.0 2.6 0.00 0.00 0.00 93 1018.7
20260906101000 56 9 0.0 1.7 0.00 0.00 0.00 93 1018.6
20260906100459 56 44 0.0 0.9 0.00 0.00 0.00 93 1018.5
20260906100004 56 53 0.0 0.9 0.00 0.00 0.00 93 1018.5
20260906095502 56 51 0.0 1.7 0.00 0.00 0.00 92 1018.4
20260906095004 56 56 0.9 1.7 0.00 0.00 0.00 92 1018.4
20260906093959 57 38 0.0 2.6 0.00 0.00 0.00 92 1018.4
20260906093459 57 19 0.0 2.6 0.00 0.00 0.00 91 1018.4
20260906092959 57 19 0.0 0.9 0.00 0.00 0.00 91 1018.4
20260906092459 57 19 0.0 0.9 0.00 0.00 0.00 90 1018.5
20260906091959 57 19 0.0 0.0 0.00 0.00 0.00 90 1018.5
20260906091459 58 19 0.0 0.0 0.00 0.00 0.00 90 1018.5
20260906090504 58 19 0.0 0.9 0.00 0.00 0.00 90 1018.4
20260906090000 58 19 0.0 0.9 0.00 0.00 0.00 90 1018.2
20260906084958 58 19 0.9 2.6 0.00 0.00 0.00 89 1018.1
20260906084458 58 30 0.9 2.6 0.00 0.00 0.00 89 1018.0
20260906083958 58 19 0.9 2.6 0.00 0.00 0.00 89 1018.0
20260906083503 58 68 1.7 2.6 0.00 0.00 0.00 89 1018.0
20260906082959 58 55 0.9 2.6 0.00 0.00 0.00 89 1018.0
20260906082459 59 58 0.9 3.5 0.00 0.00 0.00 88 1017.8
20260906081959 59 58 2.6 3.5 0.00 0.00 0.00 88 1017.9
20260906081501 59 78 0.9 2.6 0.00 0.00 0.00 88 1017.9
20260906080459 59 35 1.7 4.3 0.00 0.00 0.00 88 1017.8
20260906080003 59 74 1.7 3.5 0.00 0.00 0.00 87 1017.8
20260906075459 59 68 1.7 4.3 0.00 0.00 0.00 87 1017.7
20260906074959 59 55 1.7 4.3 0.00 0.00 0.00 87 1017.7
20260906073959 59 44 1.7 2.6 0.00 0.00 0.00 87 1017.7
20260906072959 60 56 0.9 2.6 0.00 0.00 0.00 86 1017.6
20260906072459 60 73 0.9 3.5 0.00 0.00 0.00 86 1017.6
20260906070959 60 67 1.7 4.3 0.00 0.00 0.00 86 1017.7
20260906070504 60 55 1.7 4.3 0.00 0.00 0.00 85 1017.7
20260906070002 60 57 1.7 5.2 0.00 0.00 0.00 85 1017.7
20260906065459 61 103 2.6 5.2 0.00 0.00 0.00 85 1017.8
20260906064959 61 75 1.7 3.5 0.00 0.00 0.00 85 1017.7
20260906064500 61 53 1.7 3.5 0.00 0.00 0.00 85 1017.7
20260906064002 61 69 1.7 4.3 0.00 0.00 0.00 85 1017.7
20260906063459 61 58 1.7 4.3 0.00 0.00 0.00 86 1017.7
20260906062958 61 47 0.9 3.5 0.00 0.00 0.00 86 1017.7
20260906061959 61 76 1.7 4.3 0.00 0.00 0.00 86 1017.7
20260906060959 61 65 1.7 3.5 0.00 0.00 0.00 86 1017.7
20260906060001 62 46 1.7 2.6 0.00 0.00 0.00 85 1017.6
20260906055459 62 30 1.7 2.6 0.00 0.00 0.00 85 1017.6
20260906055004 62 46 0.9 1.7 0.00 0.00 0.00 84 1017.6
20260906054501 62 38 0.0 1.7 0.00 0.00 0.00 84 1017.6
20260906053959 62 46 0.9 2.6 0.00 0.00 0.00 83 1017.6
20260906053459 63 67 0.9 2.6 0.00 0.00 0.00 83 1017.6
20260906052502 63 53 1.7 4.3 0.00 0.00 0.00 83 1017.6
20260906050459 64 48 1.7 5.2 0.00 0.00 0.00 82 1017.2
20260906050001 64 55 2.6 4.3 0.00 0.00 0.00 82 1017.3
20260906045001 64 46 2.6 5.2 0.00 0.00 0.00 81 1017.4
20260906044459 64 36 2.6 4.3 0.00 0.00 0.00 81 1017.3
20260906043959 64 92 1.7 5.2 0.00 0.00 0.00 81 1017.1
20260906042459 65 42 2.6 5.2 0.00 0.00 0.00 81 1016.9
20260906041959 65 74 2.6 6.1 0.00 0.00 0.00 81 1016.8
20260906041459 65 49 3.5 7.0 0.00 0.00 0.00 82 1016.9
20260906040959 65 82 2.6 6.1 0.00 0.00 0.00 82 1016.9
20260906035459 66 17 3.5 5.2 0.00 0.00 0.00 83 1016.8
20260906034959 66 62 1.7 4.3 0.00 0.00 0.00 84 1016.8
20260906034459 66 42 1.7 5.2 0.00 0.00 0.00 85 1016.7
20260906033959 66 70 3.5 5.2 0.00 0.00 0.00 85 1016.7
20260906032959 66 54 1.7 4.3 0.00 0.00 0.00 85 1016.7
20260906032459 66 47 2.6 4.3 0.00 0.00 0.00 86 1016.5
20260906032004 66 74 1.7 4.3 0.00 0.00 0.00 86 1016.6
20260906031502 66 74 0.9 2.6 0.00 0.00 0.00 85 1016.7
20260906030005 67 57 0.9 1.7 0.00 0.00 0.00 84 1016.6
20260906025503 67 73 0.0 1.7 0.00 0.00 0.00 84 1016.5
20260906025000 68 80 0.9 1.7 0.00 0.00 0.00 83 1016.4
20260906023501 68 29 0.9 3.5 0.00 0.00 0.00 82 1016.3
20260906022959 68 46 0.9 3.5 0.00 0.00 0.00 82 1016.2
20260906022500 69 57 1.7 3.5 0.00 0.00 0.00 82 1016.2
20260906022000 69 49 1.7 3.5 0.00 0.00 0.00 82 1016.1
20260906021500 69 44 1.7 3.5 0.00 0.00 0.00 82 1016.0
20260906021000 69 75 1.7 3.5 0.00 0.00 0.00 82 1016.0
20260906020500 70 64 1.7 4.3 0.00 0.00 0.00 82 1015.9
20260906020006 70 52 1.7 4.3 0.00 0.00 0.00 82 1015.9
20260906015500 70 64 1.7 3.5 0.00 0.00 0.00 83 1015.9
20260906014504 70 55 1.7 3.5 0.00 0.00 0.00 83 1016.0
20260906013500 70 57 0.9 4.3 0.00 0.00 0.00 85 1015.9
20260906013000 70 63 0.9 3.5 0.00 0.00 0.00 85 1015.8
20260906012500 70 26 0.9 2.6 0.00 0.00 0.00 86 1015.8
20260906011000 70 61 0.0 0.0 0.00 0.00 0.00 87 1015.5
20260906010500 70 61 0.0 0.0 0.00 0.00 0.00 87 1015.5
20260906010004 70 61 0.0 0.9 0.00 0.00 0.00 88 1015.5
20260906005500 70 65 0.0 2.6 0.00 0.00 0.00 88 1015.3
20260906005004 70 62 0.9 2.6 0.00 0.00 0.00 88 1015.3
20260906004507 70 49 0.0 0.9 0.00 0.00 0.00 89 1015.3
20260906003502 71 42 0.0 0.0 0.00 0.00 0.00 90 1015.2
20260906003000 71 42 0.0 0.0 0.00 0.00 0.00 89 1015.2
20260906002500 71 42 0.0 0.9 0.00 0.00 0.00 89 1015.1
20260906001959 71 42 0.0 0.9 0.00 0.00 0.00 89 1015.2
20260906001500 71 42 0.0 0.9 0.00 0.00 0.00 88 1015.2
20260906001001 72 42 0.0 0.0 0.00 0.00 0.00 88 1015.3
20260906000503 72 42 0.0 0.0 0.00 0.00 0.00 87 1015.2
20260906000005 72 42 0.0 0.0 0.00 0.00 0.00 87 1015.2
20260905235459 72 42 0.0 0.0 0.00 0.00 0.00 87 1015.2
20260905235000 72 42 0.0 0.0 0.00 0.00 0.00 86 1015.1
20260905234500 73 42 0.0 0.0 0.00 0.00 0.00 85 1015.1
20260905234000 73 42 0.0 0.0 0.00 0.00 0.00 84 1015.2
20260905233459 73 42 0.0 0.9 0.00 0.00 0.00 84 1015.2
20260905232003 74 13 0.0 1.7 0.00 0.00 0.00 82 1014.9
20260905231500 74 24 0.9 1.7 0.00 0.00 0.00 82 1014.9
20260905230500 74 26 0.0 0.9 0.00 0.00 0.00 81 1015.1
20260905230002 75 40 0.0 2.6 0.00 0.00 0.00 81 1015.1
20260905225459 75 48 1.7 3.5 0.00 0.00 0.00 80 1015.0
20260905224500 75 46 0.9 3.5 0.00 0.00 0.00 81 1014.9
20260905223500 75 53 1.7 3.5 0.00 0.00 0.00 81 1015.0
20260905223000 75 12 1.7 3.5 0.00 0.00 0.00 80 1014.9
20260905222500 75 61 2.6 4.3 0.00 0.00 0.00 79 1014.9
20260905222004 75 35 2.6 4.3 0.00 0.00 0.00 80 1014.8
20260905221500 75 25 0.9 5.2 0.00 0.00 0.00 80 1014.7
20260905221004 75 11 2.6 5.2 0.00 0.00 0.00 80 1014.6
20260905220500 75 76 2.6 6.1 0.00 0.00 0.00 80 1014.6
20260905220005 75 32 3.5 6.1 0.00 0.00 0.00 80 1014.5
20260905215500 75 65 3.5 10.4 0.00 0.00 0.00 80 1014.4
20260905215000 75 22 3.5 10.4 0.00 0.00 0.00 80 1014.5
20260905214500 75 61 3.5 7.8 0.00 0.00 0.00 81 1014.6
20260905213502 75 346 3.5 8.7 0.00 0.00 0.00 81 1014.5
20260905212959 75 5 4.3 9.6 0.00 0.00 0.00 81 1014.6
20260905212501 75 78 6.1 9.6 0.00 0.00 0.00 81 1014.5
20260905211959 75 76 2.6 7.0 0.00 0.00 0.00 83 1014.5
20260905211459 75 80 2.6 5.2 0.00 0.00 0.00 85 1014.4
20260905211000 75 71 3.5 8.7 0.00 0.00 0.00 85 1014.4
20260905210500 75 5 3.5 8.7 0.00 0.00 0.00 85 1014.4
20260905210002 74 92 2.6 5.2 0.00 0.00 0.00 86 1014.5
20260905205459 74 59 2.6 5.2 0.00 0.00 0.00 87 1014.4
20260905205000 74 108 2.6 5.2 0.00 0.00 0.00 87 1014.4
20260905204500 73 54 2.6 6.1 0.00 0.00 0.00 88 1014.5
20260905204000 73 59 2.6 8.7 0.00 0.00 0.00 87 1014.6
20260905203000 72 28 2.6 5.2 0.00 0.00 0.00 88 1014.6
20260905202003 72 78 3.5 5.2 0.00 0.00 0.00 89 1014.8
20260905201500 72 43 1.7 7.8 0.00 0.00 0.00 89 1014.9
20260905201000 71 16 3.5 7.8 0.00 0.00 0.00 89 1014.9
20260905200500 71 78 3.5 7.8 0.00 0.00 0.00 89 1014.8
20260905200004 71 57 3.5 7.0 0.00 0.00 0.00 90 1014.9
20260905195000 71 57 2.6 7.8 0.00 0.00 0.00 90 1014.8
20260905194459 71 19 2.6 7.8 0.00 0.00 0.00 90 1014.9
20260905194000 71 22 3.5 7.8 0.00 0.00 0.00 90 1014.9
20260905193459 71 340 2.6 4.3 0.00 0.00 0.00 91 1015.0
20260905193006 71 40 2.6 5.2 0.00 0.00 0.00 90 1015.0
20260905192500 71 42 2.6 8.7 0.00 0.00 0.00 90 1015.0
20260905191500 71 59 3.5 8.7 0.00 0.00 0.00 91 1015.0
20260905190959 71 69 1.7 8.7 0.00 0.00 0.00 91 1015.0
20260905190500 70 59 4.3 7.8 0.00 0.00 0.00 91 1015.1
20260905190004 70 57 3.5 8.7 0.00 0.00 0.00 91 1015.2
20260905185459 70 42 4.3 8.7 0.00 0.00 0.00 91 1015.1
20260905185000 70 59 3.5 7.8 0.00 0.00 0.00 92 1015.2
20260905184504 70 62 3.5 7.8 0.00 0.00 0.00 91 1015.2
20260905184000 70 79 2.6 8.7 0.00 0.00 0.00 91 1015.3
20260905183500 70 57 4.3 8.7 0.00 0.00 0.00 91 1015.3
20260905182500 70 56 2.6 9.6 0.00 0.00 0.00 92 1015.2
20260905182000 70 63 3.5 9.6 0.00 0.00 0.00 92 1015.1
20260905181504 70 56 3.5 7.8 0.00 0.00 0.00 92 1015.2
20260905181000 70 49 2.6 6.1 0.00 0.00 0.00 92 1015.2
20260905180500 70 51 4.3 7.0 0.00 0.00 0.00 92 1015.2
20260905180004 70 70 3.5 5.2 0.00 0.00 0.00 92 1015.3
20260905174959 69 37 4.3 7.0 0.00 0.00 0.00 92 1015.2
20260905174500 69 60 2.6 5.2 0.00 0.00 0.00 92 1015.1
20260905174000 69 54 2.6 5.2 0.00 0.00 0.00 92 1015.1
20260905173000 69 35 2.6 7.0 0.00 0.00 0.00 93 1015.0
20260905172000 69 11 3.5 5.2 0.00 0.00 0.00 92 1015.2
20260905171500 69 328 3.5 6.1 0.00 0.00 0.00 92 1015.2
20260905171000 69 36 3.5 8.7 0.00 0.00 0.00 92 1015.2
20260905170459 69 67 5.2 8.7 0.00 0.00 0.00 91 1015.2
20260905170003 70 49 3.5 8.7 0.00 0.00 0.00 91 1015.2
20260905165500 70 38 5.2 8.7 0.00 0.03 0.00 90 1015.2
20260905165000 70 325 3.5 8.7 0.00 0.03 0.00 90 1015.1
20260905164003 70 23 2.6 9.6 0.00 0.03 0.00 91 1015.1
20260905163459 70 14 2.6 8.7 0.00 0.03 0.00 90 1015.2
20260905163000 70 64 5.2 8.7 0.00 0.03 0.00 90 1015.2
20260905162502 70 81 3.5 7.8 0.00 0.03 0.00 90 1015.2
20260905161959 70 15 2.6 7.8 0.00 0.03 0.00 90 1015.2
20260905161500 70 20 2.6 7.8 0.00 0.03 0.00 90 1015.1
20260905160959 71 47 2.6 5.2 0.00 0.03 0.00 90 1015.1
20260905160500 70 11 2.6 5.2 0.00 0.03 0.00 90 1015.0
20260905160004 70 51 2.6 5.2 0.00 0.03 0.00 90 1015.1
20260905155459 70 59 1.7 6.1 0.00 0.07 0.00 90 1015.0
20260905154959 70 17 3.5 6.1 0.00 0.07 0.00 90 1014.9
20260905154500 70 65 4.3 7.0 0.00 0.07 0.00 91 1015.0
20260905153959 70 58 2.6 7.8 0.00 0.07 0.00 91 1014.9
20260905153502 70 68 3.5 7.8 0.00 0.07 0.00 91 1014.8
20260905152959 70 69 4.3 7.8 0.00 0.07 0.00 91 1014.8
20260905152459 70 24 3.5 7.8 0.00 0.07 0.00 91 1014.7
20260905152000 70 42 3.5 6.1 0.00 0.07 0.00 91 1014.8
20260905151502 70 32 3.5 6.1 0.00 0.07 0.00 92 1014.8
20260905150959 69 344 2.6 7.0 0.00 0.07 0.00 92 1014.8
20260905150459 69 30 2.6 7.0 0.00 0.07 0.00 92 1014.8
20260905150003 69 51 2.6 7.8 0.00 0.07 0.00 92 1014.8
20260905144959 70 57 3.5 8.7 0.00 0.21 0.00 92 1014.7
20260905144500 70 46 3.5 9.6 0.00 0.21 0.00 92 1014.6
20260905144002 69 77 5.2 9.6 0.00 0.21 0.00 92 1014.6
20260905143500 70 5 4.3 8.7 0.00 0.21 0.00 92 1014.5
20260905142959 70 44 3.5 8.7 0.00 0.21 0.00 93 1014.5
20260905142459 69 69 4.3 7.8 0.00 0.21 0.00 93 1014.4
20260905141959 69 41 3.5 7.8 0.00 0.21 0.00 93 1014.5
20260905141459 69 60 2.6 7.8 0.00 0.21 0.00 94 1014.4
20260905140959 69 51 3.5 6.1 0.00 0.21 0.00 94 1014.4
20260905140005 69 105 4.3 7.8 0.00 0.21 0.00 95 1014.4
20260905135000 68 43 4.3 7.8 0.00 0.78 0.00 95 1014.3
20260905134500 68 36 2.6 7.0 0.00 0.78 0.00 96 1014.3
20260905133959 68 41 3.5 6.1 0.00 0.78 0.00 96 1014.4
20260905132959 68 75 4.3 7.0 0.00 0.78 0.00 96 1014.3
20260905132459 68 5 3.5 7.0 0.00 0.78 0.00 97 1014.2
20260905130959 68 69 4.3 7.0 0.00 0.78 0.00 97 1014.1
20260905130459 68 65 1.7 7.8 0.00 0.78 0.00 97 1014.0
20260905130004 69 32 2.6 7.8 0.00 0.78 0.00 97 1014.0
20260905125459 69 57 2.6 9.6 0.00 0.87 0.00 97 1014.0
20260905124959 69 49 6.1 9.6 0.00 0.87 0.00 97 1014.0
20260905123959 69 325 2.6 5.2 0.00 0.87 0.00 97 1013.8
20260905123459 69 36 2.6 6.1 0.00 0.87 0.00 97 1013.7
20260905122959 69 72 2.6 5.2 0.00 0.87 0.00 97 1013.5
20260905122459 69 39 1.7 7.0 0.00 0.87 0.00 97 1013.6
20260905121959 70 66 2.6 7.0 0.00 0.87 0.00 97 1013.6